カタログに戻る

QIANFAN-182

運用中通信PO
NORAD 69399·PAYLOAD·🇨🇳 China

打ち上げ Jun 4, 2026 から Taiyuan Satellite Launch Center

Loading…

次のパス (今後24時間)

TLE

最新Source: Space-Track

元期: Sep 14, 2026, 20:46 UTC

1 69399U 26124T   26257.86560437  .00000134  00000-0  18838-3 0  9991
2 69399  89.0049 352.5866 0001837 102.7232 257.4125 13.51027564 14138

AllMySatでQIANFAN-182をリアルタイム追跡

Download on the App Store